Regional Weather Roundup
Issued by NWS

Home | Current Version | Previous Version | Graphics & Text | Print | Product List | Glossary On
Versions: 1 2 3 4 5 6 7 8 9 10 11 12 13 14 15 16 17 18 19 20 21 22 23 24 25 26 27 28 29 30 31 32 33 34 35 36 37 38 39 40 41 42 43 44 45 46 47 48 49 50
409
ASUS43 KFSD 222202
RWRSD

WEATHER ROUNDUP FOR SOUTH DAKOTA
NATIONAL WEATHER SERVICE SIOUX FALLS SD
400 PM CST SUN JAN 22 2017

NOTE: "FAIR" INDICATES FEW OR NO CLOUDS BELOW 12,000 FEET WITH NO
SIGNIFICANT WEATHER AND/OR OBSTRUCTIONS TO VISIBILITY.


SDZ001>005-009-010-012>017-222300-
NORTHWEST AND NORTH CENTRAL SOUTH DAKOTA

CITY           SKY/WX    TMP DP  RH WIND       PRES   REMARKS
BUFFALO          N/A     31  24  75 NW9       29.76R WCI  23
FAITH            N/A     25  22  88 W7        29.83R WCI  17
MOBRIDGE       CLOUDY    30  25  81 NW13      29.81R WCI  20
$$

SDZ012>016-024>037-041>051-057-063-072>074-222300-
SOUTHWEST AND SOUTH CENTRAL SOUTH DAKOTA

CITY           SKY/WX    TMP DP  RH WIND       PRES   REMARKS
RAPID CTY ARPT SUNNY     40  23  50 SE5       29.84R
PIERRE         CLOUDY    29  24  82 NW16      29.86S WCI  17
CUSTER         SUNNY     36  13  38 W14G21    29.81R
ELLSWORTH AFB  SUNNY     41  25  52 S5        29.82S
PHILIP         SUNNY     33  26  75 NE7       29.86R WCI  27
PINE RIDGE     SUNNY     40  26  57 W10       29.85S
SPEARFISH      FAIR      41  19  42 NW9G17    29.82R
WINNER         FAIR      38  27  64 NW16      29.86R
$$

SDZ004>011-016>023-039-040-222300-
NORTHEAST SOUTH DAKOTA

CITY           SKY/WX    TMP DP  RH WIND       PRES   REMARKS
ABERDEEN       CLOUDY    30  24  78 W15       29.81R WCI  19
WATERTOWN      CLOUDY    29  27  92 NW14      29.77S WCI  18
BROOKINGS      CLOUDY    28  27  96 NW14      29.78S FOG     WCI  17
SISSETON         N/A     34  30  85 NW9       29.77R WCI  27
$$

SDZ017-020-022-023-036>040-048>070-222300-
SOUTHEAST SOUTH DAKOTA

CITY           SKY/WX    TMP DP  RH WIND       PRES   REMARKS
SIOUX FALLS    CLOUDY    30  28  92 NW14      29.81S FOG     WCI  19
HURON          CLOUDY    29  27  92 W15       29.84R WCI  18
CHAMBERLAIN    CLOUDY    32  28  86 NW18      29.87R WCI  20
MITCHELL       CLOUDY    32  28  85 NW14      29.86R WCI  22
YANKTON        SUNNY     37  28  70 NW12      29.84R
$$

ABBREVIATIONS USED IN REMARKS
   TC - TEMPERATURE IN CELSIUS
  WCI - WIND CHILL INDEX
   HX - HEAT INDEX
  VSB - VISIBILITY





USA.gov is the U.S. government's official web portal to all federal, state and local government web resources and services.